| time (UTC) | temp F | wind direction | speed MPH | gust MPH | rain 1hr in | rain 24hr in | rain mn in | humidity % | barometer mb |
| 20260504015333 | 63 | 0 | 0.0 | 0.0 | 0.00 | 0.00 | 0.00 | 8 | 1009.6 |
| 20260504014109 | 63 | 0 | 0.0 | 1.0 | 0.00 | 0.00 | 0.00 | 8 | 1009.6 |
| 20260504012626 | 63 | 0 | 0.0 | 0.0 | 0.00 | 0.00 | 0.00 | 8 | 1009.6 |
| 20260504011214 | 63 | 0 | 0.0 | 1.0 | 0.00 | 0.00 | 0.00 | 8 | 1009.6 |
| 20260504005831 | 63 | 0 | 0.0 | 1.0 | 0.00 | 0.00 | 0.00 | 8 | 1009.5 |
| 20260504004456 | 63 | 0 | 0.0 | 1.0 | 0.00 | 0.00 | 0.00 | 8 | 1009.6 |
| 20260504003026 | 63 | 0 | 0.0 | 0.0 | 0.00 | 0.00 | 0.00 | 8 | 1009.8 |
| 20260504001706 | 63 | 0 | 0.0 | 0.0 | 0.00 | 0.00 | 0.00 | 8 | 1009.8 |
| 20260504000441 | 63 | 0 | 0.0 | 0.0 | 0.00 | 0.00 | 0.00 | 8 | 1010.1 |
| 20260503235221 | 63 | 0 | 0.0 | 0.0 | 0.00 | 0.00 | 0.00 | 8 | 1010.2 |
| 20260503233756 | 63 | 0 | 0.0 | 1.0 | 0.00 | 0.00 | 0.00 | 8 | 1010.4 |
| 20260503232529 | 63 | 0 | 0.0 | 0.0 | 0.00 | 0.00 | 0.00 | 8 | 1010.3 |
| 20260503231054 | 63 | 0 | 0.0 | 1.0 | 0.00 | 0.00 | 0.00 | 8 | 1010.4 |
| 20260503225816 | 63 | 0 | 0.0 | 0.0 | 0.00 | 0.00 | 0.00 | 8 | 1010.3 |
| 20260503224540 | 63 | 335 | 2.0 | 2.0 | 0.00 | 0.00 | 0.00 | 8 | 1010.4 |
| 20260503223321 | 63 | 335 | 2.0 | 2.0 | 0.00 | 0.00 | 0.00 | 8 | 1010.4 |
| 20260503221826 | 64 | 339 | 1.0 | 2.0 | 0.00 | 0.00 | 0.00 | 8 | 1010.4 |
| 20260503220530 | 64 | 0 | 0.0 | 1.0 | 0.00 | 0.00 | 0.00 | 8 | 1010.4 |
| 20260503215151 | 64 | 0 | 0.0 | 0.0 | 0.00 | 0.00 | 0.02 | 8 | 1010.6 |
| 20260503213821 | 64 | 0 | 0.0 | 0.0 | 0.00 | 0.00 | 0.02 | 8 | 1010.7 |
| 20260503212524 | 64 | 0 | 0.0 | 0.0 | 0.00 | 0.00 | 0.02 | 8 | 1010.9 |
| 20260503211115 | 64 | 0 | 0.0 | 0.0 | 0.00 | 0.00 | 0.02 | 8 | 1010.9 |
| 20260503205715 | 64 | 289 | 1.0 | 1.0 | 0.00 | 0.00 | 0.02 | 8 | 1010.9 |
| 20260503204348 | 64 | 0 | 0.0 | 0.0 | 0.00 | 0.00 | 0.02 | 8 | 1010.3 |
| 20260503203148 | 64 | 0 | 0.0 | 0.0 | 0.00 | 0.00 | 0.02 | 8 | 1010.3 |
| 20260503201926 | 64 | 0 | 0.0 | 0.0 | 0.00 | 0.00 | 0.02 | 8 | 1010.1 |
| 20260503200611 | 64 | 0 | 0.0 | 1.0 | 0.00 | 0.00 | 0.02 | 8 | 1009.7 |
| 20260503195300 | 64 | 0 | 0.0 | 0.0 | 0.00 | 0.00 | 0.02 | 8 | 1009.7 |
| 20260503193953 | 64 | 0 | 0.0 | 0.0 | 0.01 | 0.00 | 0.02 | 8 | 1009.5 |
| 20260503192556 | 64 | 0 | 0.0 | 0.0 | 0.01 | 0.00 | 0.02 | 8 | 1009.6 |
| 20260503191240 | 64 | 157 | 2.0 | 2.0 | 0.01 | 0.00 | 0.02 | 8 | 1009.7 |
| 20260503185851 | 64 | 180 | 1.0 | 4.0 | 0.00 | 0.00 | 0.01 | 8 | 1009.5 |
| 20260503184410 | 65 | 0 | 0.0 | 0.0 | 0.00 | 0.00 | 0.00 | 8 | 1009.4 |
| 20260503183031 | 65 | 263 | 1.0 | 1.0 | 0.00 | 0.00 | 0.00 | 8 | 1009.5 |
| 20260503181644 | 65 | 263 | 1.0 | 1.0 | 0.00 | 0.00 | 0.00 | 8 | 1009.5 |
| 20260503180323 | 65 | 0 | 0.0 | 1.0 | 0.00 | 0.00 | 0.00 | 8 | 1009.4 |
| 20260503174929 | 65 | 0 | 0.0 | 0.0 | 0.00 | 0.00 | 0.00 | 8 | 1009.1 |
| 20260503173606 | 65 | 0 | 0.0 | 1.0 | 0.00 | 0.00 | 0.00 | 7 | 1009.4 |
| 20260503172345 | 65 | 0 | 0.0 | 1.0 | 0.00 | 0.00 | 0.00 | 7 | 1009.3 |
| 20260503170916 | 66 | 0 | 0.0 | 3.0 | 0.00 | 0.00 | 0.00 | 7 | 1009.2 |
| 20260503150212 | 67 | 222 | 3.0 | 4.0 | 0.00 | 0.00 | 0.00 | 7 | 1009.9 |
| 20260503130141 | 70 | 209 | 3.0 | 4.0 | 0.00 | 0.00 | 0.00 | 6 | 1010.5 |
| 20260503081409 | 64 | 351 | 2.0 | 2.0 | 0.00 | 0.00 | 0.00 | 8 | 1012.4 |
| 20260503080105 | 64 | 351 | 2.0 | 2.0 | 0.00 | 0.00 | 0.00 | 8 | 1012.4 |
| 20260503072020 | 64 | 0 | 0.0 | 0.0 | 0.00 | 0.00 | 0.00 | 8 | 1012.0 |
| 20260503070805 | 64 | 0 | 0.0 | 0.0 | 0.00 | 0.00 | 0.00 | 8 | 1011.8 |
| 20260503054809 | 63 | 0 | 0.0 | 0.0 | 0.00 | 0.00 | 0.00 | 8 | 1011.7 |
| 20260503053345 | 63 | 0 | 0.0 | 0.0 | 0.00 | 0.00 | 0.00 | 8 | 1011.5 |
| 20260503052048 | 63 | 0 | 0.0 | 0.0 | 0.00 | 0.00 | 0.00 | 8 | 1011.5 |
| 20260503050550 | 63 | 0 | 0.0 | 1.0 | 0.00 | 0.00 | 0.00 | 8 | 1011.3 |
| 20260503045245 | 63 | 0 | 0.0 | 3.0 | 0.00 | 0.00 | 0.00 | 8 | 1011.2 |
| 20260503043949 | 63 | 0 | 0.0 | 0.0 | 0.00 | 0.00 | 0.00 | 8 | 1011.5 |
| 20260503042733 | 63 | 0 | 0.0 | 1.0 | 0.00 | 0.00 | 0.00 | 8 | 1011.3 |
| 20260503041529 | 63 | 0 | 0.0 | 1.0 | 0.00 | 0.00 | 0.00 | 8 | 1011.3 |
| 20260503040034 | 63 | 0 | 0.0 | 0.0 | 0.00 | 0.00 | 0.00 | 8 | 1011.2 |
| 20260503034715 | 63 | 0 | 0.0 | 0.0 | 0.00 | 0.00 | 0.00 | 8 | 1011.2 |
| 20260503033428 | 63 | 0 | 0.0 | 0.0 | 0.00 | 0.00 | 0.00 | 8 | 1011.6 |
| 20260503032120 | 63 | 0 | 0.0 | 1.0 | 0.00 | 0.00 | 0.00 | 8 | 1011.6 |
| 20260503030630 | 63 | 0 | 0.0 | 1.0 | 0.00 | 0.00 | 0.00 | 8 | 1011.2 |
| 20260503025309 | 63 | 0 | 0.0 | 1.0 | 0.00 | 0.00 | 0.00 | 8 | 1011.4 |
| 20260503024055 | 63 | 0 | 0.0 | 1.0 | 0.00 | 0.00 | 0.00 | 8 | 1011.8 |
| 20260503022747 | 63 | 134 | 1.0 | 1.0 | 0.00 | 0.00 | 0.00 | 8 | 1012.0 |
| 20260503021510 | 64 | 131 | 1.0 | 1.0 | 0.00 | 0.00 | 0.00 | 8 | 1012.1 |